When you browse on this site, cookies collect data to enhance your experience and personalize the content and advertising you see.
Visit our Privacy Policy to learn more. By continuing to use the site, you agree to this use of cookies and data.
  • In Romania
  • List of Countries
  • For 7 days
  • Water Temperature
  • Satellite Maps
  • Weather Map
  • Weather Widgets
  • user-avatar
    Login

    Hourly Weather The Pas

    Today, 20 November, Tuesday

    Time Temperature Precipitation Wind Pressure Humidity
    00:00 -13°C° 0 mm 1 mps 735 mmHg 95%
    01:00 -13°C° 0 mm 1 mps 736 mmHg 95%
    02:00 -16°C° 0 mm 2 mps 736 mmHg 96%
    03:00 -16°C° 0 mm 2 mps 736 mmHg 96%
    04:00 -17°C° 0 mm 2 mps 737 mmHg 96%
    05:00 -18°C° 0 mm 3 mps 737 mmHg 95%
    06:00 -19°C° 0 mm 3 mps 738 mmHg 94%
    07:00 -19°C° 0 mm 3 mps 738 mmHg 94%
    08:00 -19°C° 0 mm 2 mps 739 mmHg 93%
    09:00 -18°C° 0 mm 2 mps 740 mmHg 88%
    10:00 -18°C° 0 mm 2 mps 740 mmHg 84%
    11:00 -17°C° 0 mm 2 mps 741 mmHg 79%
    12:00 -17°C° 0 mm 2 mps 742 mmHg 78%
    13:00 -17°C° 0 mm 2 mps 742 mmHg 76%
    14:00 -17°C° 0 mm 2 mps 742 mmHg 75%
    15:00 -18°C° 0 mm 2 mps 743 mmHg 80%
    16:00 -19°C° 0 mm 2 mps 743 mmHg 85%
    17:00 -20°C° 0 mm 2 mps 744 mmHg 89%
    18:00 -20°C° 0 mm 2 mps 744 mmHg 90%
    19:00 -20°C° 0 mm 2 mps 744 mmHg 90%
    20:00 -21°C° 0 mm 2 mps 745 mmHg 91%
    21:00 -21°C° 0 mm 2 mps 745 mmHg 91%
    22:00 -21°C° 0 mm 2 mps 745 mmHg 91%
    23:00 -23°C° 0 mm 3 mps 745 mmHg 90%

    Tomorrow, 21 November, Wednesday

    Time Temperature Precipitation Wind Pressure Humidity
    00:00 -23°C° 0 mm 3 mps 745 mmHg 90%
    01:00 -23°C° 0 mm 3 mps 745 mmHg 90%
    02:00 -22°C° 0 mm 3 mps 745 mmHg 89%
    03:00 -21°C° 0 mm 3 mps 744 mmHg 89%
    04:00 -22°C° 0 mm 4 mps 744 mmHg 88%
    05:00 -20°C° 0 mm 4 mps 743 mmHg 87%
    06:00 -19°C° 0.1 mm 4 mps 743 mmHg 87%
    07:00 -19°C° 0.1 mm 4 mps 743 mmHg 87%
    08:00 -19°C° 0.1 mm 5 mps 742 mmHg 87%
    09:00 -19°C° 0.1 mm 5 mps 742 mmHg 86%
    10:00 -18°C° 0.1 mm 5 mps 741 mmHg 85%
    11:00 -17°C° 0.1 mm 5 mps 741 mmHg 84%
    12:00 -17°C° 0 mm 5 mps 740 mmHg 84%
    13:00 -15°C° 0 mm 5 mps 739 mmHg 84%
    14:00 -14°C° 0 mm 5 mps 739 mmHg 84%
    15:00 -14°C° 0 mm 5 mps 738 mmHg 86%
    16:00 -14°C° 0 mm 5 mps 737 mmHg 87%
    17:00 -14°C° 0 mm 5 mps 737 mmHg 89%
    18:00 -14°C° 0 mm 4 mps 736 mmHg 90%
    19:00 -14°C° 0 mm 4 mps 736 mmHg 91%
    20:00 -14°C° 0 mm 4 mps 735 mmHg 92%
    21:00 -12°C° 0 mm 4 mps 735 mmHg 92%
    22:00 -12°C° 0 mm 4 mps 734 mmHg 93%
    23:00 -12°C° 0 mm 4 mps 733 mmHg 93%

    Day after tomorrow, 22 November, Thursday

    Time Temperature Precipitation Wind Pressure Humidity
    00:00 -12°C° 0 mm 4 mps 733 mmHg 94%
    01:00 -12°C° 0 mm 4 mps 732 mmHg 94%
    02:00 -11°C° 0 mm 4 mps 732 mmHg 94%
    03:00 -11°C° 0 mm 4 mps 731 mmHg 94%
    04:00 -11°C° 0 mm 4 mps 731 mmHg 94%
    05:00 -11°C° 0 mm 4 mps 730 mmHg 94%
    06:00 -10°C° 0 mm 4 mps 730 mmHg 94%
    07:00 -10°C° 0 mm 4 mps 729 mmHg 93%
    08:00 -10°C° 0 mm 4 mps 728 mmHg 93%
    09:00 -9°C° 0 mm 4 mps 728 mmHg 91%
    10:00 -8°C° 0 mm 4 mps 727 mmHg 90%
    11:00 -7°C° 0 mm 4 mps 726 mmHg 88%
    12:00 -5°C° 0 mm 3 mps 726 mmHg 88%
    13:00 -5°C° 0 mm 3 mps 725 mmHg 89%
    14:00 -5°C° 0 mm 3 mps 724 mmHg 89%
    15:00 -6°C° 0 mm 3 mps 724 mmHg 91%
    16:00 -6°C° 0 mm 2 mps 723 mmHg 93%
    17:00 -7°C° 0 mm 2 mps 723 mmHg 96%
    18:00 -7°C° 0 mm 2 mps 723 mmHg 96%
    19:00 -7°C° 0 mm 2 mps 722 mmHg 96%
    20:00 -6°C° 0 mm 1 mps 722 mmHg 95%
    21:00 -6°C° 0 mm 1 mps 721 mmHg 96%
    22:00 -6°C° 0 mm 1 mps 721 mmHg 96%
    23:00 -6°C° 0 mm 1 mps 721 mmHg 96%

    23 November, Friday

    Time Temperature Precipitation Wind Pressure Humidity
    00:00 -6°C° 0 mm 1 mps 721 mmHg 96%
    01:00 -6°C° 0 mm 1 mps 720 mmHg 96%
    02:00 -6°C° 0 mm 1 mps 720 mmHg 97%
    03:00 -6°C° 0 mm 1 mps 720 mmHg 97%
    04:00 -4°C° 0 mm 1 mps 720 mmHg 97%
    05:00 -6°C° 0 mm 2 mps 720 mmHg 97%
    06:00 -6°C° 0 mm 2 mps 720 mmHg 96%
    07:00 -6°C° 0 mm 2 mps 720 mmHg 95%
    08:00 -7°C° 0 mm 3 mps 720 mmHg 94%
    09:00 -7°C° 0 mm 3 mps 720 mmHg 92%
    10:00 -6°C° 0 mm 3 mps 721 mmHg 89%
    11:00 -7°C° 0 mm 4 mps 721 mmHg 87%
    12:00 -7°C° 0 mm 4 mps 721 mmHg 86%
    13:00 -7°C° 0 mm 4 mps 721 mmHg 85%
    14:00 -7°C° 0 mm 4 mps 721 mmHg 85%
    15:00 -7°C° 0 mm 4 mps 722 mmHg 85%
    16:00 -7°C° 0 mm 4 mps 722 mmHg 86%
    17:00 -5°C° 0 mm 4 mps 723 mmHg 87%
    18:00 -5°C° 0 mm 4 mps 723 mmHg 87%
    19:00 -5°C° 0 mm 4 mps 723 mmHg 87%
    20:00 -5°C° 0 mm 4 mps 724 mmHg 88%
    21:00 -5°C° 0 mm 4 mps 724 mmHg 86%
    22:00 -7°C° 0 mm 4 mps 724 mmHg 85%
    23:00 -8°C° 0 mm 5 mps 725 mmHg 84%

    24 November, Saturday

    Time Temperature Precipitation Wind Pressure Humidity
    00:00 -8°C° 0 mm 5 mps 726 mmHg 84%
    01:00 -10°C° 0 mm 5 mps 726 mmHg 84%
    02:00 -11°C° 0 mm 5 mps 727 mmHg 83%
    03:00 -12°C° 0 mm 5 mps 728 mmHg 84%
    04:00 -12°C° 0 mm 5 mps 729 mmHg 84%
    05:00 -13°C° 0 mm 5 mps 730 mmHg 84%
    06:00 -14°C° 0 mm 5 mps 730 mmHg 84%
    07:00 -15°C° 0 mm 5 mps 731 mmHg 84%
    08:00 -17°C° 0 mm 5 mps 732 mmHg 84%
    09:00 -16°C° 0 mm 4 mps 733 mmHg 82%
    10:00 -16°C° 0 mm 4 mps 733 mmHg 81%
    11:00 -16°C° 0 mm 4 mps 734 mmHg 79%
    12:00 -16°C° 0 mm 4 mps 735 mmHg 78%
    13:00 -16°C° 0 mm 4 mps 735 mmHg 78%
    14:00 -17°C° 0 mm 4 mps 736 mmHg 77%
    15:00 -17°C° 0 mm 4 mps 736 mmHg 79%
    16:00 -18°C° 0 mm 4 mps 737 mmHg 81%
    17:00 -19°C° 0 mm 4 mps 738 mmHg 82%
    18:00 -20°C° 0 mm 4 mps 738 mmHg 83%
    19:00 -20°C° 0 mm 4 mps 739 mmHg 84%
    20:00 -22°C° 0 mm 4 mps 739 mmHg 85%
    21:00 -23°C° 0 mm 4 mps 740 mmHg 86%
    22:00 -22°C° 0 mm 3 mps 740 mmHg 86%
    23:00 -23°C° 0 mm 3 mps 740 mmHg 87%

    25 November, Sunday

    Time Temperature Precipitation Wind Pressure Humidity
    00:00 -23°C° 0 mm 3 mps 741 mmHg 88%
    01:00 -24°C° 0 mm 3 mps 741 mmHg 88%
    02:00 -24°C° 0 mm 3 mps 741 mmHg 88%
    03:00 -24°C° 0 mm 3 mps 741 mmHg 88%
    04:00 -25°C° 0 mm 3 mps 742 mmHg 88%
    05:00 -25°C° 0 mm 3 mps 742 mmHg 88%
    06:00 -25°C° 0 mm 3 mps 742 mmHg 88%
    07:00 -26°C° 0 mm 3 mps 742 mmHg 87%
    08:00 -26°C° 0 mm 3 mps 742 mmHg 87%
    09:00 -25°C° 0 mm 3 mps 742 mmHg 83%
    10:00 -24°C° 0 mm 3 mps 742 mmHg 78%
    11:00 -23°C° 0 mm 3 mps 742 mmHg 74%
    12:00 -22°C° 0 mm 3 mps 742 mmHg 73%
    13:00 -22°C° 0 mm 3 mps 742 mmHg 72%
    14:00 -21°C° 0 mm 3 mps 742 mmHg 72%
    15:00 -22°C° 0 mm 3 mps 742 mmHg 76%
    16:00 -22°C° 0 mm 3 mps 743 mmHg 80%
    17:00 -23°C° 0 mm 3 mps 743 mmHg 84%
    18:00 -23°C° 0 mm 3 mps 743 mmHg 85%
    19:00 -24°C° 0 mm 3 mps 743 mmHg 87%
    20:00 -24°C° 0 mm 3 mps 743 mmHg 88%
    21:00 -24°C° 0 mm 3 mps 744 mmHg 89%
    22:00 -25°C° 0 mm 3 mps 744 mmHg 89%
    23:00 -25°C° 0 mm 3 mps 744 mmHg 90%
    Show more